Location: St. Louis
(38.6270°N, 90.1994°W)
Time: 14:40:35
(UTC-06:00)

Vanguard 1 - Pass Details

Date: 03 December 2021
Orbit: 652 x 3830 km, 34.2° (Epoch: 19 January)

Event Time Altitude Azimuth Distance (km) Brightness Sun altitude
Rises 22:43:22 0° 225° (SW) 6,733 14.3 -68.2°
Enters shadow 22:47:17 10° 221° (SW) 6,073 14.0 -68.7°
Reaches altitude 10° 22:47:28 10° 221° (SW) 6,043 - -68.7°
Maximum altitude 23:07:33 55° 150° (SSE) 4,276 - -71.2°
Exits shadow 23:28:51 10° 80° (E) 6,406 14.1 -73.0°
Drops below altitude 10° 23:28:58 10° 80° (E) 6,424 14.1 -73.0°
Sets 23:33:27 0° 77° (ENE) 7,164 14.5 -73.2°
